Previsão horária em Judasze

Hoje, 21 Junho, Segunda-feira

Tempo Temperatura Precipitação Vento Pressão Humidade
00:00 +19°C° 0 mm 2 m/s 738 mmHg 92%
01:00 +18°C° 0 mm 2 m/s 737 mmHg 93%
02:00 +18°C° 0 mm 2 m/s 737 mmHg 93%
03:00 +18°C° 0 mm 2 m/s 737 mmHg 94%
04:00 +17°C° 0 mm 3 m/s 737 mmHg 95%
05:00 +19°C° 0 mm 3 m/s 737 mmHg 90%
06:00 +21°C° 0 mm 4 m/s 737 mmHg 85%
07:00 +22°C° 0 mm 5 m/s 737 mmHg 80%
08:00 +23°C° 0 mm 5 m/s 737 mmHg 74%
09:00 +26°C° 0 mm 4 m/s 737 mmHg 69%
10:00 +27°C° 0 mm 4 m/s 737 mmHg 63%
11:00 +28°C° 0 mm 4 m/s 737 mmHg 60%
12:00 +29°C° 0 mm 3 m/s 737 mmHg 57%
13:00 +30°C° 0 mm 2 m/s 737 mmHg 54%
14:00 +30°C° 0 mm 2 m/s 736 mmHg 54%
15:00 +30°C° 0 mm 3 m/s 736 mmHg 54%
16:00 +30°C° 0 mm 3 m/s 736 mmHg 53%
17:00 +29°C° 0 mm 2 m/s 736 mmHg 60%
18:00 +27°C° 0 mm 2 m/s 736 mmHg 67%
19:00 +26°C° 0 mm 2 m/s 736 mmHg 74%
20:00 +25°C° 0.1 mm 2 m/s 736 mmHg 79%
21:00 +24°C° 0.1 mm 2 m/s 736 mmHg 83%
22:00 +21°C° 0.1 mm 2 m/s 736 mmHg 87%
23:00 +22°C° 0.1 mm 1 m/s 736 mmHg 89%

Amanhã, 22 Junho, Terça-feira

Tempo Temperatura Precipitação Vento Pressão Humidade
00:00 +21°C° 0.1 mm 1 m/s 736 mmHg 90%
01:00 +21°C° 0.1 mm 1 m/s 736 mmHg 91%
02:00 +21°C° 0 mm 1 m/s 736 mmHg 92%
03:00 +21°C° 0 mm 1 m/s 736 mmHg 92%
04:00 +21°C° 0 mm 1 m/s 736 mmHg 92%
05:00 +22°C° 0 mm 1 m/s 737 mmHg 88%
06:00 +23°C° 0 mm 1 m/s 737 mmHg 84%
07:00 +25°C° 0 mm 1 m/s 737 mmHg 80%
08:00 +26°C° 0.3 mm 1 m/s 737 mmHg 74%
09:00 +27°C° 0.3 mm 1 m/s 738 mmHg 69%
10:00 +29°C° 0.3 mm 1 m/s 738 mmHg 64%
11:00 +29°C° 0.3 mm 1 m/s 738 mmHg 61%
12:00 +30°C° 0.3 mm 1 m/s 738 mmHg 58%
13:00 +30°C° 0.3 mm 1 m/s 738 mmHg 55%
14:00 +30°C° 0.1 mm 1 m/s 738 mmHg 55%
15:00 +30°C° 0.1 mm 1 m/s 738 mmHg 56%
16:00 +30°C° 0.1 mm 1 m/s 738 mmHg 56%
17:00 +27°C° 1.7 mm 2 m/s 738 mmHg 67%
18:00 +24°C° 1.7 mm 2 m/s 738 mmHg 79%
19:00 +20°C° 1.7 mm 3 m/s 738 mmHg 90%
20:00 +20°C° 0.6 mm 2 m/s 739 mmHg 91%
21:00 +21°C° 0.6 mm 1 m/s 739 mmHg 92%
22:00 +20°C° 0.6 mm 1 m/s 739 mmHg 92%
23:00 +20°C° 0.1 mm 1 m/s 739 mmHg 93%

Depois de amanhã, 23 Junho, Quarta-feira

Tempo Temperatura Precipitação Vento Pressão Humidade
00:00 +20°C° 0.1 mm 1 m/s 739 mmHg 93%
01:00 +20°C° 0.1 mm 1 m/s 739 mmHg 93%
02:00 +20°C° 0 mm 1 m/s 740 mmHg 93%
03:00 +20°C° 0 mm 1 m/s 740 mmHg 94%
04:00 +20°C° 0 mm 1 m/s 740 mmHg 94%
05:00 +21°C° 0 mm 1 m/s 740 mmHg 90%
06:00 +22°C° 0 mm 1 m/s 740 mmHg 87%
07:00 +24°C° 0 mm 1 m/s 741 mmHg 83%
08:00 +25°C° 0 mm 1 m/s 741 mmHg 78%
09:00 +27°C° 0 mm 1 m/s 741 mmHg 72%
10:00 +28°C° 0 mm 1 m/s 741 mmHg 66%
11:00 +29°C° 0 mm 1 m/s 741 mmHg 63%
12:00 +30°C° 0 mm 1 m/s 741 mmHg 60%
13:00 +29°C° 0 mm 0 m/s 741 mmHg 56%
14:00 +30°C° 0.3 mm 1 m/s 741 mmHg 58%
15:00 +30°C° 0.3 mm 1 m/s 741 mmHg 60%
16:00 +30°C° 0.3 mm 2 m/s 741 mmHg 62%
17:00 +28°C° 0.5 mm 2 m/s 742 mmHg 69%
18:00 +27°C° 0.5 mm 2 m/s 742 mmHg 76%
19:00 +25°C° 0.5 mm 3 m/s 742 mmHg 84%
20:00 +24°C° 0 mm 2 m/s 742 mmHg 86%
21:00 +23°C° 0 mm 2 m/s 742 mmHg 89%
22:00 +21°C° 0 mm 2 m/s 742 mmHg 91%
23:00 +21°C° 0 mm 2 m/s 742 mmHg 92%

24 Junho, Quinta-feira

Tempo Temperatura Precipitação Vento Pressão Humidade
00:00 +20°C° 0 mm 2 m/s 742 mmHg 94%
01:00 +20°C° 0 mm 2 m/s 742 mmHg 95%
02:00 +20°C° 0 mm 2 m/s 742 mmHg 95%
03:00 +20°C° 0 mm 2 m/s 742 mmHg 95%
04:00 +20°C° 0 mm 1 m/s 742 mmHg 96%
05:00 +22°C° 0 mm 1 m/s 742 mmHg 92%
06:00 +23°C° 0 mm 1 m/s 743 mmHg 88%
07:00 +24°C° 0 mm 1 m/s 743 mmHg 84%
08:00 +26°C° 0 mm 1 m/s 743 mmHg 78%
09:00 +27°C° 0 mm 1 m/s 743 mmHg 72%
10:00 +27°C° 0 mm 0 m/s 743 mmHg 66%
11:00 +30°C° 0 mm 1 m/s 743 mmHg 62%
12:00 +30°C° 0 mm 1 m/s 742 mmHg 59%
13:00 +31°C° 0 mm 1 m/s 742 mmHg 55%
14:00 +31°C° 0.1 mm 1 m/s 742 mmHg 54%
15:00 +31°C° 0.1 mm 1 m/s 742 mmHg 54%
16:00 +32°C° 0.1 mm 2 m/s 741 mmHg 53%
17:00 +30°C° 0.5 mm 2 m/s 741 mmHg 60%
18:00 +29°C° 0.5 mm 2 m/s 741 mmHg 67%
19:00 +27°C° 0.5 mm 3 m/s 741 mmHg 74%
20:00 +25°C° 1.5 mm 2 m/s 741 mmHg 77%
21:00 +23°C° 1.5 mm 2 m/s 741 mmHg 80%
22:00 +20°C° 1.5 mm 2 m/s 741 mmHg 83%
23:00 +20°C° 0.3 mm 2 m/s 740 mmHg 85%

25 Junho, Sexta-feira

Tempo Temperatura Precipitação Vento Pressão Humidade
00:00 +19°C° 0.3 mm 2 m/s 740 mmHg 87%
01:00 +19°C° 0.3 mm 2 m/s 739 mmHg 89%
02:00 +19°C° 0.5 mm 2 m/s 739 mmHg 91%
03:00 +19°C° 0.5 mm 2 m/s 739 mmHg 92%
04:00 +19°C° 0.5 mm 2 m/s 739 mmHg 94%
05:00 +20°C° 0.1 mm 2 m/s 738 mmHg 91%
06:00 +21°C° 0.1 mm 2 m/s 738 mmHg 88%
07:00 +23°C° 0.1 mm 1 m/s 738 mmHg 85%
08:00 +25°C° 0 mm 2 m/s 738 mmHg 80%
09:00 +26°C° 0 mm 3 m/s 738 mmHg 75%
10:00 +27°C° 0 mm 4 m/s 739 mmHg 70%
11:00 +27°C° 0 mm 5 m/s 739 mmHg 71%
12:00 +27°C° 0 mm 5 m/s 739 mmHg 71%
13:00 +26°C° 0 mm 5 m/s 739 mmHg 72%
14:00 +26°C° 0 mm 5 m/s 739 mmHg 71%
15:00 +26°C° 0 mm 5 m/s 739 mmHg 70%
16:00 +26°C° 0 mm 6 m/s 738 mmHg 69%
17:00 +25°C° 0.2 mm 5 m/s 739 mmHg 74%
18:00 +23°C° 0.2 mm 4 m/s 739 mmHg 79%
19:00 +22°C° 0.2 mm 4 m/s 739 mmHg 84%
20:00 +21°C° 0.2 mm 3 m/s 739 mmHg 87%
21:00 +19°C° 0.2 mm 3 m/s 739 mmHg 91%
22:00 +18°C° 0.2 mm 2 m/s 739 mmHg 94%
23:00 +18°C° 0.6 mm 2 m/s 739 mmHg 95%

26 Junho, Sábado

Tempo Temperatura Precipitação Vento Pressão Humidade
00:00 +18°C° 0.6 mm 2 m/s 740 mmHg 96%
01:00 +17°C° 0.6 mm 2 m/s 740 mmHg 96%
02:00 +17°C° 0 mm 2 m/s 740 mmHg 96%
03:00 +17°C° 0 mm 2 m/s 740 mmHg 95%
04:00 +17°C° 0 mm 2 m/s 740 mmHg 95%
05:00 +18°C° 0.3 mm 3 m/s 740 mmHg 94%
06:00 +18°C° 0.3 mm 3 m/s 741 mmHg 94%
07:00 +18°C° 0.3 mm 4 m/s 741 mmHg 93%
08:00 +18°C° 0.6 mm 4 m/s 741 mmHg 93%
09:00 +18°C° 0.6 mm 4 m/s 741 mmHg 92%
10:00 +18°C° 0.6 mm 4 m/s 741 mmHg 92%
11:00 +19°C° 0.1 mm 4 m/s 741 mmHg 87%
12:00 +20°C° 0.1 mm 3 m/s 741 mmHg 83%
13:00 +20°C° 0.1 mm 3 m/s 741 mmHg 79%
14:00 +21°C° 0 mm 3 m/s 741 mmHg 76%
15:00 +21°C° 0 mm 3 m/s 741 mmHg 73%
16:00 +21°C° 0 mm 3 m/s 740 mmHg 70%
17:00 +21°C° 0.2 mm 3 m/s 740 mmHg 75%
18:00 +20°C° 0.2 mm 3 m/s 740 mmHg 80%
19:00 +19°C° 0.2 mm 3 m/s 740 mmHg 85%
20:00 +18°C° 0.1 mm 3 m/s 740 mmHg 89%
21:00 +17°C° 0.1 mm 3 m/s 741 mmHg 92%
22:00 +16°C° 0.1 mm 3 m/s 741 mmHg 96%
23:00 +16°C° 0 mm 3 m/s 741 mmHg 96%
Mostrar mais

Necessitamos do seu Consentimento

A Meteoprog e os seus Fornecedores de Serviços podem armazenar e aceder a dados pessoais como cookies, identificadores do dispositivo ou outras tecnologias semelhantes existentes no seu dispositivo e processar estes dados para personalizar conteúdos e anúncios, assim como funcionalidades nas redes sociais e análise de tráfego.

  • Armazenar e/ou aceder a informações no seu dispositivo

    Os cookies, identificadores do dispositivo ou outras informações podem ser armazenados ou acedidos no seu dispositivo, para os fins acima indicados.

  • Anúncios e conteúdos personalizados, medição de anúncios e conteúdos, dados sobre o público-alvo e desenvolvimento de produtos

    Os anúncios e os conteúdos podem ser personalizados com base num perfil. Podem ser adicionados dados adicionais para uma maior personalização dos anúncios e dos conteúdos. A eficácia dos anúncios e dos conteúdos pode ser medida. Podem ser obtidas informações sobre o público que visualizou os anúncios e os conteúdos. Estes dados podem ser usados para desenvolver ou melhorar sistemas, softwares ou a experiência do utilizador.

Ao clicar em "Eu concordo”, permitirá o uso de cookies, identificadores do dispositivo e web beacons mencionados ou outras tecnologias semelhantes. As configurações do navegador do seu dispositivo podem ser alteradas.

Para certos fins, podem ser invocados interesses legítimos ao invés de consentimento. Pode ler mais informação sobre este assunto na nossa Política de Privacidade e Cookies.